Starlink 30239

operational
NORAD ID: 57291 Int'l Des: 2023-096 Owner: SPXS Country: US Constellation: starlink
LEOCIRCULAR

Starlink 30239について

説明を読み込み中...

リアルタイム位置

3D地球を読み込み中...

次回通過

高度履歴

Altitude vs Time

uPlot chart will show altitude changes over time

軌道要素

1 57291U 23096B 25354.84829193 -.00000025 00000-0 13214-4 0 9990
2 57291 43.0047 291.9063 0001226 263.9802 96.0900 15.02532959135751
Epoch: Dec 20, 2025 • Age: 5 hours

現在のステータス

高度 560.2 km
速度 7.58 km/s
衛星直下点 -8.33°S, 175.62°E
打ち上げ日 Jul 10, 2023
運用期間 2.4 years
タイプ internet

技術仕様

分類 Payload
質量 730.00 kg
乾燥質量 700.00 kg
総質量 730.00 kg
長さ 0.30 m
直径 4.10 m
スパン 29.00 m
形状 Box + pan
製造者 SPXS
バスタイプ Starlink V2M
フェーズステータス In Orbit
所有者/国 SPXS/US

大規模コンステレーション

Loading constellations...